BIRK

Reykjavik Airport

Reykjavik, Iceland
Issued Wind Visibility Ceiling Temperature Dew Point Humidity Barometer
Oct-20
12:00 UTC
210°
13 KTS
10,000+ meters Broken
1,400' AGL
C
43° F
C
39° F
87% 29.35" Hg
994 hPa
MVFR
Oct-20
11:00 UTC
210°
16 KTS
8,996 meters Broken
500' AGL
C
43° F
C
39° F
87% 29.32" Hg
993 hPa
IFR
Oct-20
10:00 UTC
210°
15 KTS
10,000+ meters Broken
600' AGL
C
43° F
C
41° F
93% 29.29" Hg
992 hPa
IFR
Oct-20
09:00 UTC
210°
14 KTS
6,003 meters Overcast
500' AGL
C
45° F
C
41° F
87% 29.26" Hg
991 hPa
IFR
Oct-20
08:01 UTC
200°
12 KTS
1,996 meters Overcast
300' AGL
C
45° F
C
43° F
93% 29.23" Hg
990 hPa
LIFR
Oct-20
07:00 UTC
10,000+ meters Broken
4,600' AGL
C
46° F
C
41° F
82% 29.2" Hg
989 hPa
VFR
Oct-20
06:00 UTC
060°
6 KTS
10,000+ meters   C
46° F
C
41° F
82% 29.17" Hg
988 hPa
VFR
Oct-20
05:00 UTC
060°
5 KTS
10,000+ meters   C
46° F
C
41° F
82% 29.17" Hg
988 hPa
VFR
Oct-20
04:00 UTC
170°
6 KTS
10,000+ meters Overcast
9,500' AGL
C
48° F
C
41° F
76% 29.17" Hg
988 hPa
VFR
Oct-20
03:00 UTC
120°
9 KTS
10,000+ meters Overcast
8,900' AGL
C
48° F
C
43° F
82% 29.17" Hg
988 hPa
VFR
Oct-20
02:00 UTC
120°
10 KTS
10,000+ meters Broken
5,000' AGL
C
48° F
C
43° F
82% 29.17" Hg
988 hPa
VFR
Oct-20
01:00 UTC
100°
11 KTS
10,000+ meters Overcast
5,000' AGL
C
48° F
C
45° F
87% 29.17" Hg
988 hPa
VFR
Oct-20
00:00 UTC
090°
13 KTS
10,000+ meters Broken
2,200' AGL
C
48° F
C
43° F
82% 29.14" Hg
987 hPa
MVFR
Oct-19
23:00 UTC
090°
14 KTS
10,000+ meters Overcast
3,900' AGL
10° C
50° F
C
43° F
76% 29.17" Hg
988 hPa
VFR
Oct-19
22:00 UTC
080°
15 KTS
10,000+ meters Broken
4,900' AGL
11° C
52° F
C
39° F
62% 29.14" Hg
987 hPa
VFR
Oct-19
21:00 UTC
080°
15 KTS
10,000+ meters Broken
5,000' AGL
10° C
50° F
C
37° F
62% 29.17" Hg
988 hPa
VFR
Oct-19
20:00 UTC
080°
14 KTS
10,000+ meters Broken
6,500' AGL
10° C
50° F
C
37° F
62% 29.2" Hg
989 hPa
VFR
Oct-19
19:00 UTC
080°
12 KTS
10,000+ meters Overcast
11,000' AGL
10° C
50° F
C
36° F
58% 29.23" Hg
990 hPa
VFR
Oct-19
18:00 UTC
070°
13 KTS
Gust 24 KTS
10,000+ meters Overcast
10,000' AGL
10° C
50° F
C
36° F
58% 29.26" Hg
991 hPa
VFR
Oct-19
17:00 UTC
090°
14 KTS
10,000+ meters Broken
10,000' AGL
10° C
50° F
C
36° F
58% 29.26" Hg
991 hPa
VFR
Oct-19
16:00 UTC
080°
16 KTS
10,000+ meters Broken
10,000' AGL
10° C
50° F
C
36° F
58% 29.29" Hg
992 hPa
VFR
Oct-19
15:00 UTC
090°
17 KTS
10,000+ meters Broken
16,000' AGL
10° C
50° F
C
36° F
58% 29.32" Hg
993 hPa
VFR
Oct-19
14:00 UTC
090°
16 KTS
10,000+ meters Broken
14,000' AGL
10° C
50° F
C
36° F
58% 29.32" Hg
993 hPa
VFR
Oct-19
13:00 UTC
080°
16 KTS
10,000+ meters Broken
22,000' AGL
10° C
50° F
C
36° F
58% 29.35" Hg
994 hPa
VFR